Location: Krasnoyarskiy Pitomnik
(51.1333°N, 71.6167°E)
Time: 18:35:54
(UTC+00:00)

Vanguard 2 - Pass Details

Date: 28 April 2024
Orbit: 553 x 2914 km, 32.9° (Epoch: 22 May)

Event Time Altitude Azimuth Distance (km) Brightness Sun altitude
Exits shadow 19:08:16 31° 158° (SSE) 3,514 10.3 -24.4°
Drops below altitude 10° 19:21:23 10° 106° (ESE) 5,608 11.8 -24.3°
Sets 19:26:45 0° 98° (E) 6,741 12.3 -24.3°
